Location: Unspecified
(0.0000°N, 0.0000°E)
Time: 13:26:19
(UTC+00:00)

Envisat - Pass Details

Date: 21 May 2022
Orbit: 764 x 765 km, 98.2° (Epoch: 19 May)

Event Time Altitude Azimuth Distance (km) Brightness Sun altitude
Rises 04:46:23 0° 355° (N) 3,213 6.4 -16.4°
Reaches altitude 10° 04:48:52 10° 345° (NNW) 2,290 5.5 -15.9°
Maximum altitude 04:53:22 33° 282° (WNW) 1,261 3.7 -14.8°
Enters shadow 04:56:13 19° 231° (SW) 1,751 4.3 -14.2°
